Weather History for Liberia, Costa Rica

Change the Weather History Date:

Monday, June 9, 2014

  Actual Average Record
Temperature  
Mean Temperature 80 °F -  
Max Temperature 93 °F 86 °F 93 °F (1999)
Min Temperature 68 °F 75 °F 68 °F (2014)
Cooling Degree Days 16    
Growing Degree Days 30 (Base 50)    
Moisture  
Dew Point 70 °F    
Average Humidity 58    
Maximum Humidity 88    
Minimum Humidity 35    
Precipitation  
Precipitation 0.00 in - - ()
Sea Level Pressure  
Sea Level Pressure 29.83 in    
Wind  
Wind Speed 5 mph ()    
Max Wind Speed 14 mph    
Max Gust Speed 25 mph    
Visibility 8.4 miles    
Events      
Averages and records for this station are not official NWS values.
T = Trace of Precipitation, MM = Missing Value Source: Averaged Metar Reports

Daily Weather History Graph

Daily Weather History Graph

Search for Another Location

Airport:

Trip Planner

Search our weather history database for the weather conditions in past years. The results will help you decide how hot, cold, wet, or windy it might be!

Date:

Astronomy

Jun. 09, 2014 Rise Set
Actual Time 5:19 AM CST 6:03 PM CST
Civil Twilight 4:56 AM CST 6:26 PM CST
Nautical Twilight 4:29 AM CST 6:53 PM CST
Astronomical Twilight 4:01 AM CST 7:21 PM CST
Moon 2:54 PM CST (6/9) 2:09 AM CST (6/9)
Length of Visible Light 13h 29m
Length of Day
12h 43m
Waxing Gibbous, 85% of the Moon is Illuminated
Jun 9
Waxing Gibbous
Jun 12
Full
Jun 19
Last Quarter
Jun 27
New
Jul 5
First Quarter

Hourly Weather History & Observations

Time (CST) Temp. Heat Index Dew Point Humidity Pressure Visibility Wind Dir Wind Speed Gust Speed Precip Events Conditions
6:00 AM 74 °F - 69 °F 79% 29.85 in 12 mi Calm Calm - -   Overcast
6:00 AM 73.4 °F - 69.8 °F 88% 29.82 in - Calm Calm - N/A   Clear
7:00 AM 78.8 °F - 69.8 °F 74% 29.85 in - Calm Calm - N/A   Clear
8:00 AM 84.2 °F 89.6 °F 71.6 °F 66% 29.87 in 6.2 mi Calm Calm - N/A   Scattered Clouds
9:00 AM 85 °F - 71 °F 55% 29.91 in 12 mi East 3.5 mph - -   Overcast
9:00 AM 86.0 °F 91.8 °F 71.6 °F 62% 29.88 in 6.2 mi East 3.5 mph - N/A   Mostly Cloudy
10:00 AM 86.0 °F 90.4 °F 69.8 °F 58% 29.88 in 6.2 mi East 11.5 mph - N/A   Drizzle
11:00 AM 87.8 °F 95.6 °F 73.4 °F 62% 29.85 in 6.2 mi SE 8.1 mph - N/A   Mostly Cloudy
12:00 PM 90 °F - 70 °F 42% 29.86 in 12 mi East 13.8 mph - -   Partly Cloudy
12:00 PM 89.6 °F 94.7 °F 69.8 °F 52% 29.83 in 6.2 mi East 13.8 mph 25.3 mph N/A   Mostly Cloudy
1:00 PM 91.4 °F 96.8 °F 69.8 °F 49% 29.82 in 6.2 mi East 8.1 mph - N/A   Mostly Cloudy
2:00 PM 91.4 °F 96.8 °F 69.8 °F 49% 29.79 in - North - - N/A   Mostly Cloudy
3:00 PM 93 °F - 68 °F 35% 29.80 in 12 mi ENE 8.1 mph - -   Overcast
3:00 PM - - - N/A% 29.77 in 6.2 mi ENE 8.1 mph - N/A   Mostly Cloudy
4:00 PM 89.6 °F 93.4 °F 68.0 °F 49% 29.77 in 6.2 mi ENE 12.7 mph - N/A   Mostly Cloudy
5:00 PM 86.0 °F 90.4 °F 69.8 °F 58% 29.78 in - ESE 9.2 mph - N/A   Clear
6:00 PM 85 °F - 68 °F 47% 29.81 in 12 mi ENE 9.2 mph - -   Overcast
6:00 PM 84.2 °F 87.3 °F 68.0 °F 58% 29.78 in - ENE 9.2 mph - N/A   Clear
7:00 PM 84.2 °F 86.6 °F 66.2 °F 55% 29.82 in - East 11.5 mph - N/A   Clear
8:00 PM 80.6 °F 83.2 °F 68.0 °F 65% 29.83 in - East 8.1 mph - N/A   Clear